Time,TemperatureF,DewpointF,PressureIn,WindDirection,WindDirectionDegrees,WindSpeedMPH,WindSpeedGustMPH,Humidity,HourlyPrecipIn,Conditions,Clouds,dailyrainin,SoftwareType,DateUTC
2013-06-30 00:13:00,69.8,68.0,29.76,SSW,194,1.0,4.0,95,0.00,,,0.00,weatherlink.com 1.10,2013-06-30 04:13:00,
2013-06-30 00:28:00,69.8,69.0,29.76,SSE,150,1.0,5.0,96,0.00,,,0.00,weatherlink.com 1.10,2013-06-30 04:28:00,
2013-06-30 00:43:00,69.8,69.0,29.76,South,174,2.0,5.0,96,0.00,,,0.00,weatherlink.com 1.10,2013-06-30 04:43:00,
2013-06-30 00:58:00,69.8,69.0,29.77,SSW,210,2.0,7.0,96,0.00,,,0.00,weatherlink.com 1.10,2013-06-30 04:58:00,
2013-06-30 01:13:00,69.7,69.0,29.77,South,180,2.0,5.0,97,0.00,,,0.00,weatherlink.com 1.10,2013-06-30 05:13:00,
2013-06-30 01:28:00,69.8,69.0,29.77,SSW,210,0.0,3.0,97,0.00,,,0.00,weatherlink.com 1.10,2013-06-30 05:28:00,
2013-06-30 01:43:00,69.8,69.0,29.77,South,176,1.0,5.0,97,0.00,,,0.00,weatherlink.com 1.10,2013-06-30 05:43:00,
2013-06-30 01:58:00,69.8,69.0,29.77,SSE,165,1.0,3.0,96,0.00,,,0.00,weatherlink.com 1.10,2013-06-30 05:58:00,
2013-06-30 02:13:00,69.8,69.0,29.78,SSW,203,1.0,3.0,96,0.00,,,0.00,weatherlink.com 1.10,2013-06-30 06:13:00,
2013-06-30 02:28:00,69.6,69.0,29.78,SSW,206,2.0,5.0,96,0.00,,,0.00,weatherlink.com 1.10,2013-06-30 06:28:00,
2013-06-30 02:43:00,69.4,69.0,29.78,South,181,0.0,6.0,97,0.00,,,0.00,weatherlink.com 1.10,2013-06-30 06:43:00,
2013-06-30 02:58:00,69.4,69.0,29.78,South,169,2.0,2.0,97,0.00,,,0.00,weatherlink.com 1.10,2013-06-30 06:58:00,
2013-06-30 03:13:00,69.4,69.0,29.78,SSE,162,0.0,5.0,97,0.00,,,0.00,weatherlink.com 1.10,2013-06-30 07:13:00,
2013-06-30 03:28:00,69.2,68.0,29.77,South,172,0.0,2.0,97,0.00,,,0.00,weatherlink.com 1.10,2013-06-30 07:28:00,
2013-06-30 03:43:00,69.0,68.0,29.77,South,171,0.0,3.0,97,0.00,,,0.00,weatherlink.com 1.10,2013-06-30 07:43:00,
2013-06-30 03:58:00,69.0,68.0,29.78,SSW,198,2.0,3.0,97,0.00,,,0.00,weatherlink.com 1.10,2013-06-30 07:58:00,
2013-06-30 04:13:00,69.1,68.0,29.78,SSW,203,2.0,3.0,97,0.00,,,0.00,weatherlink.com 1.10,2013-06-30 08:13:00,
2013-06-30 04:28:00,69.1,68.0,29.78,SSE,160,0.0,4.0,97,0.00,,,0.00,weatherlink.com 1.10,2013-06-30 08:28:00,
2013-06-30 04:43:00,69.2,69.0,29.79,South,186,2.0,3.0,98,0.00,,,0.00,weatherlink.com 1.10,2013-06-30 08:43:00,
2013-06-30 04:58:00,69.3,69.0,29.80,South,172,2.0,5.0,98,0.00,,,0.00,weatherlink.com 1.10,2013-06-30 08:58:00,
2013-06-30 05:13:00,69.1,69.0,29.80,SW,214,1.0,4.0,98,0.00,,,0.00,weatherlink.com 1.10,2013-06-30 09:13:00,
2013-06-30 05:29:00,69.2,69.0,29.80,South,171,2.0,2.0,98,0.00,,,0.00,weatherlink.com 1.10,2013-06-30 09:29:00,
2013-06-30 05:44:00,69.2,69.0,29.81,South,172,0.0,2.0,98,0.00,,,0.00,weatherlink.com 1.10,2013-06-30 09:44:00,
2013-06-30 05:59:00,69.3,69.0,29.81,South,171,1.0,3.0,98,0.00,,,0.00,weatherlink.com 1.10,2013-06-30 09:59:00,
2013-06-30 06:14:00,69.4,69.0,29.82,SW,214,0.0,4.0,98,0.00,,,0.00,weatherlink.com 1.10,2013-06-30 10:14:00,
2013-06-30 06:29:00,69.5,69.0,29.83,SSE,162,0.0,3.0,98,0.00,,,0.00,weatherlink.com 1.10,2013-06-30 10:29:00,
2013-06-30 06:44:00,69.5,69.0,29.84,South,177,1.0,4.0,98,0.00,,,0.00,weatherlink.com 1.10,2013-06-30 10:44:00,
2013-06-30 06:59:00,69.6,69.0,29.84,SSE,160,1.0,4.0,98,0.00,,,0.00,weatherlink.com 1.10,2013-06-30 10:59:00,
2013-06-30 07:14:00,69.3,69.0,29.85,South,181,2.0,5.0,98,0.00,,,0.00,weatherlink.com 1.10,2013-06-30 11:14:00,
2013-06-30 07:29:00,69.4,69.0,29.85,SSW,203,0.0,4.0,98,0.00,,,0.00,weatherlink.com 1.10,2013-06-30 11:29:00,
2013-06-30 07:44:00,69.7,69.0,29.85,SW,222,1.0,3.0,98,0.00,,,0.00,weatherlink.com 1.10,2013-06-30 11:44:00,
2013-06-30 07:59:00,70.1,70.0,29.86,SW,223,0.0,2.0,98,0.00,,,0.00,weatherlink.com 1.10,2013-06-30 11:59:00,
2013-06-30 08:14:00,70.3,70.0,29.86,SSW,196,0.0,5.0,98,0.00,,,0.00,weatherlink.com 1.10,2013-06-30 12:14:00,
2013-06-30 08:29:00,70.6,70.0,29.86,SW,224,0.0,5.0,98,0.00,,,0.00,weatherlink.com 1.10,2013-06-30 12:29:00,
2013-06-30 08:44:00,70.6,70.0,29.87,SSE,166,1.0,4.0,97,0.00,,,0.00,weatherlink.com 1.10,2013-06-30 12:44:00,
2013-06-30 08:59:00,70.5,70.0,29.86,SSW,195,2.0,4.0,97,0.00,,,0.00,weatherlink.com 1.10,2013-06-30 12:59:00,
2013-06-30 09:14:00,70.7,70.0,29.87,SE,139,0.0,4.0,97,0.00,,,0.00,weatherlink.com 1.10,2013-06-30 13:14:00,
2013-06-30 09:29:00,71.2,70.0,29.87,SSE,155,1.0,5.0,96,0.00,,,0.00,weatherlink.com 1.10,2013-06-30 13:29:00,
2013-06-30 09:44:00,71.5,70.0,29.87,SSW,199,2.0,6.0,96,0.00,,,0.00,weatherlink.com 1.10,2013-06-30 13:44:00,
2013-06-30 09:59:00,71.4,70.0,29.87,South,190,2.0,6.0,95,0.00,,,0.00,weatherlink.com 1.10,2013-06-30 13:59:00,
2013-06-30 10:14:00,71.1,70.0,29.87,SSE,148,3.0,5.0,95,0.00,,,0.00,weatherlink.com 1.10,2013-06-30 14:14:00,
2013-06-30 10:29:00,71.1,70.0,29.88,SSW,212,2.0,7.0,95,0.00,,,0.00,weatherlink.com 1.10,2013-06-30 14:29:00,
2013-06-30 10:44:00,71.4,70.0,29.88,SE,143,2.0,5.0,96,0.00,,,0.00,weatherlink.com 1.10,2013-06-30 14:44:00,
2013-06-30 10:59:00,71.6,70.0,29.88,SSW,201,4.0,5.0,94,0.00,,,0.00,weatherlink.com 1.10,2013-06-30 14:59:00,
2013-06-30 11:14:00,71.8,70.0,29.89,South,182,2.0,8.0,95,0.00,,,0.00,weatherlink.com 1.10,2013-06-30 15:14:00,
2013-06-30 11:29:00,71.6,70.0,29.89,SSW,200,1.0,5.0,95,0.00,,,0.00,weatherlink.com 1.10,2013-06-30 15:29:00,
2013-06-30 11:44:00,72.2,71.0,29.89,NNE,28,0.0,3.0,95,0.00,,,0.00,weatherlink.com 1.10,2013-06-30 15:44:00,
2013-06-30 11:59:00,72.8,71.0,29.89,South,184,2.0,5.0,93,0.00,,,0.00,weatherlink.com 1.10,2013-06-30 15:59:00,
2013-06-30 12:14:00,73.1,71.0,29.89,WSW,248,0.0,2.0,93,0.00,,,0.00,weatherlink.com 1.10,2013-06-30 16:14:00,
2013-06-30 12:29:00,73.1,71.0,29.89,SW,231,0.0,7.0,92,0.00,,,0.00,weatherlink.com 1.10,2013-06-30 16:29:00,
2013-06-30 12:44:00,72.7,70.0,29.89,SSE,164,1.0,6.0,92,0.00,,,0.00,weatherlink.com 1.10,2013-06-30 16:44:00,
2013-06-30 12:59:00,72.3,71.0,29.89,SSE,163,1.0,5.0,94,0.00,,,0.00,weatherlink.com 1.10,2013-06-30 16:59:00,
2013-06-30 13:14:00,72.4,71.0,29.89,SSW,208,0.0,5.0,94,0.00,,,0.00,weatherlink.com 1.10,2013-06-30 17:14:00,
2013-06-30 13:29:00,73.7,71.0,29.89,East,96,5.0,5.0,92,0.00,,,0.00,weatherlink.com 1.10,2013-06-30 17:29:00,
2013-06-30 13:44:00,73.7,71.0,29.89,SW,220,0.0,6.0,91,0.00,,,0.00,weatherlink.com 1.10,2013-06-30 17:44:00,
2013-06-30 14:00:00,74.1,70.0,29.90,SW,225,3.0,5.0,88,0.00,,,0.00,weatherlink.com 1.10,2013-06-30 18:00:00,
2013-06-30 14:15:00,74.6,70.0,29.90,West,279,0.0,5.0,86,0.00,,,0.00,weatherlink.com 1.10,2013-06-30 18:15:00,
2013-06-30 14:30:00,75.1,70.0,29.90,SSE,153,3.0,7.0,83,0.00,,,0.00,weatherlink.com 1.10,2013-06-30 18:30:00,
2013-06-30 14:45:00,75.2,69.0,29.90,SW,214,2.0,5.0,80,0.00,,,0.00,weatherlink.com 1.10,2013-06-30 18:45:00,
2013-06-30 15:01:00,75.3,68.0,29.91,SW,232,3.0,6.0,77,0.00,,,0.00,weatherlink.com 1.10,2013-06-30 19:01:00,
2013-06-30 15:15:00,75.0,68.0,29.91,South,179,0.0,6.0,79,0.00,,,0.00,weatherlink.com 1.10,2013-06-30 19:15:00,
2013-06-30 15:30:00,74.9,69.0,29.91,SSE,167,3.0,7.0,82,0.00,,,0.00,weatherlink.com 1.10,2013-06-30 19:30:00,
2013-06-30 15:45:00,74.6,69.0,29.91,WSW,241,1.0,6.0,82,0.00,,,0.00,weatherlink.com 1.10,2013-06-30 19:45:00,
2013-06-30 16:00:00,74.7,69.0,29.91,SSE,166,2.0,9.0,81,0.00,,,0.00,weatherlink.com 1.10,2013-06-30 20:00:00,
2013-06-30 16:15:00,74.6,69.0,29.91,SSW,210,0.0,4.0,82,0.00,,,0.00,weatherlink.com 1.10,2013-06-30 20:15:00,
2013-06-30 16:30:00,74.6,69.0,29.91,SSE,156,2.0,7.0,82,0.00,,,0.00,weatherlink.com 1.10,2013-06-30 20:30:00,
2013-06-30 16:45:00,74.6,69.0,29.92,SW,217,4.0,6.0,83,0.00,,,0.00,weatherlink.com 1.10,2013-06-30 20:45:00,
2013-06-30 17:00:00,75.0,69.0,29.92,SSE,158,3.0,7.0,81,0.00,,,0.00,weatherlink.com 1.10,2013-06-30 21:00:00,
2013-06-30 17:15:00,74.9,69.0,29.92,South,169,2.0,6.0,83,0.00,,,0.00,weatherlink.com 1.10,2013-06-30 21:15:00,
2013-06-30 17:30:00,74.7,70.0,29.92,SSW,200,0.0,6.0,85,0.00,,,0.00,weatherlink.com 1.10,2013-06-30 21:30:00,
2013-06-30 17:45:00,74.6,70.0,29.92,SE,139,2.0,4.0,85,0.00,,,0.00,weatherlink.com 1.10,2013-06-30 21:45:00,
2013-06-30 18:00:00,73.5,70.0,29.93,SSW,213,1.0,10.0,88,0.00,,,0.00,weatherlink.com 1.10,2013-06-30 22:00:00,
2013-06-30 18:15:00,72.6,70.0,29.93,SSE,150,4.0,8.0,90,0.00,,,0.00,weatherlink.com 1.10,2013-06-30 22:15:00,
2013-06-30 18:30:00,71.7,69.0,29.93,SSE,162,3.0,6.0,91,0.00,,,0.00,weatherlink.com 1.10,2013-06-30 22:30:00,
2013-06-30 18:45:00,71.1,68.0,29.93,SW,214,0.0,3.0,91,0.00,,,0.00,weatherlink.com 1.10,2013-06-30 22:45:00,
2013-06-30 19:00:00,70.9,69.0,29.94,South,176,2.0,4.0,93,0.00,,,0.00,weatherlink.com 1.10,2013-06-30 23:00:00,
2013-06-30 19:15:00,70.6,69.0,29.95,South,169,2.0,5.0,93,0.00,,,0.00,weatherlink.com 1.10,2013-06-30 23:15:00,
2013-06-30 19:30:00,70.2,69.0,29.95,SW,221,2.0,6.0,95,0.00,,,0.00,weatherlink.com 1.10,2013-06-30 23:30:00,
2013-06-30 19:45:00,70.3,69.0,29.95,South,182,5.0,5.0,96,0.00,,,0.00,weatherlink.com 1.10,2013-06-30 23:45:00,
2013-06-30 20:00:00,70.5,69.0,29.94,SSE,163,0.0,4.0,96,0.08,,,0.08,weatherlink.com 1.10,2013-07-01 00:00:00,
2013-06-30 20:15:00,70.6,70.0,29.95,SSW,204,3.0,3.0,97,0.09,,,0.09,weatherlink.com 1.10,2013-07-01 00:15:00,
2013-06-30 20:30:00,70.5,70.0,29.95,SSE,149,2.0,4.0,97,0.09,,,0.09,weatherlink.com 1.10,2013-07-01 00:30:00,
2013-06-30 20:45:00,70.3,69.0,29.95,South,170,2.0,7.0,97,0.09,,,0.09,weatherlink.com 1.10,2013-07-01 00:45:00,
2013-06-30 21:00:00,70.2,69.0,29.95,South,190,2.0,6.0,97,0.00,,,0.09,weatherlink.com 1.10,2013-07-01 01:00:00,
2013-06-30 21:15:00,70.1,69.0,29.96,SSE,167,3.0,6.0,97,0.00,,,0.09,weatherlink.com 1.10,2013-07-01 01:15:00,
2013-06-30 21:30:00,69.9,69.0,29.96,SSE,156,3.0,5.0,97,0.00,,,0.09,weatherlink.com 1.10,2013-07-01 01:30:00,
2013-06-30 21:45:00,69.9,69.0,29.96,SSW,195,1.0,5.0,97,0.00,,,0.09,weatherlink.com 1.10,2013-07-01 01:45:00,
2013-06-30 22:00:00,69.7,69.0,29.97,South,186,2.0,6.0,97,0.00,,,0.09,weatherlink.com 1.10,2013-07-01 02:00:00,
2013-06-30 22:15:00,69.5,69.0,29.96,SSE,165,2.0,4.0,97,0.00,,,0.09,weatherlink.com 1.10,2013-07-01 02:15:00,
2013-06-30 22:30:00,69.4,69.0,29.96,SSE,162,1.0,4.0,97,0.00,,,0.09,weatherlink.com 1.10,2013-07-01 02:30:00,
2013-06-30 22:45:00,69.6,69.0,29.97,SSE,148,1.0,9.0,97,0.00,,,0.09,weatherlink.com 1.10,2013-07-01 02:45:00,
2013-06-30 23:00:00,69.5,69.0,29.97,SSW,198,2.0,5.0,97,0.00,,,0.09,weatherlink.com 1.10,2013-07-01 03:00:00,
2013-06-30 23:15:00,69.8,69.0,29.97,South,180,0.0,8.0,97,0.00,,,0.09,weatherlink.com 1.10,2013-07-01 03:15:00,
2013-06-30 23:30:00,70.1,69.0,29.97,South,174,2.0,8.0,97,0.00,,,0.09,weatherlink.com 1.10,2013-07-01 03:30:00,
2013-06-30 23:45:00,70.3,69.0,29.97,SSE,163,3.0,6.0,97,0.00,,,0.09,weatherlink.com 1.10,2013-07-01 03:45:00,